Location: Unspecified
(0.0000°N, 0.0000°E)
Time: 03:31:56
(UTC+00:00)

Vanguard 2 - Pass Details

Date: 11 December 2017
Orbit: 552 x 2940 km, 32.9° (Epoch: 16 January)

Event Time Altitude Azimuth Distance (km) Brightness Sun altitude
Rises 05:11:42 0° 238° (WSW) 5,642 11.6 -9.5°
Reaches altitude 10° 05:17:41 10° 218° (SW) 5,082 11.6 -8.2°
Maximum altitude 05:26:02 16° 185° (S) 5,008 11.9 -6.3°
Drops below altitude 10° 05:35:24 10° 152° (SSE) 5,760 12.8 -4.1°
Sets 05:43:10 0° 133° (SE) 6,758 14.0 -2.3°
